Pittsburgh, PA

8:40 PM EDT on October 17, 2017 (GMT -0400)
Pittsburgh International

Weather History for KPIT - May, 2014

Change the Weather History Date:

Wednesday, May 28, 2014

  Actual Average Record
Temperature  
Mean Temperature 73 °F 64 °F  
Max Temperature 81 °F 74 °F 92 °F (1911)
Min Temperature 65 °F 53 °F 35 °F (1971)
Degree Days  
Heating Degree Days 0 4  
Month to date heating degree days 150 186  
Since 1 July heating degree days 6008 5662  
Cooling Degree Days 8 2  
Month to date cooling degree days 55 36  
Year to date cooling degree days 65 46  
Growing Degree Days 22 (Base 50)    
Moisture  
Dew Point 64 °F    
Average Humidity 76    
Maximum Humidity 93    
Minimum Humidity 58    
Precipitation  
Precipitation 0.15 in 0.14 in 2.00 in (2000)
Month to date precipitation 4.32 3.51  
Year to date precipitation 15.09 14.66  
Snow  
Snow 0.00 in 0.00 in 0.00 in (2002)
Month to date snowfall 0.0 0.0  
Since 1 July snowfall 63.4 41.9  
Snow Depth 0.00 in    
Sea Level Pressure  
Sea Level Pressure 29.98 in    
Wind  
Wind Speed 6 mph (West)    
Max Wind Speed 17 mph    
Max Gust Speed 23 mph    
Visibility 9 miles    
Events Rain , Thunderstorm    
T = Trace of Precipitation, MM = Missing Value Source: NWS Daily Summary

Daily Weather History Graph

Daily Weather History Graph

Search for Another Location

Airport or City:

Trip Planner

Search our weather history database for the weather conditions in past years. The results will help you decide how hot, cold, wet, or windy it might be!

Date:

Astronomy

May. 28, 2014 Rise Set
Actual Time 5:54 AM EDT 8:42 PM EDT
Civil Twilight 5:22 AM EDT 9:14 PM EDT
Nautical Twilight 4:42 AM EDT 9:54 PM EDT
Astronomical Twilight 3:55 AM EDT 10:41 PM EDT
Moon 5:59 AM EDT (5/28) 8:39 PM EDT (5/28)
Length of Visible Light 15h 51m
Length of Day
14h 47m
Waning Crescent, 0% of the Moon is Illuminated
May 28
Waning Crescent
May 28
New
Jun 5
First Quarter
Jun 13
Full
Jun 19
Last Quarter

Hourly Weather History & Observations

Time (EDT) Temp. Heat Index Dew Point Humidity Pressure Visibility Wind Dir Wind Speed Gust Speed Precip Events Conditions
12:05 AM 66.2 °F - 64.4 °F 94% 29.95 in 6.0 mi SSW 4.6 mph - N/A Rain Light Rain
12:51 AM 66.0 °F - 64.0 °F 93% 29.95 in 10.0 mi SW 8.1 mph - 0.06 in Rain Light Rain
1:51 AM 66.0 °F - 63.0 °F 90% 29.94 in 10.0 mi SW 5.8 mph - 0.05 in   Overcast
2:51 AM 64.9 °F - 63.0 °F 93% 29.94 in 10.0 mi SW 4.6 mph - 0.00 in   Overcast
3:51 AM 64.9 °F - 63.0 °F 93% 29.92 in 10.0 mi SW 4.6 mph - N/A   Overcast
4:51 AM 66.0 °F - 64.0 °F 93% 29.93 in 6.0 mi SW 9.2 mph - N/A   Overcast
5:51 AM 66.0 °F - 64.0 °F 93% 29.93 in 7.0 mi West 8.1 mph - 0.00 in   Overcast
6:51 AM 66.0 °F - 64.0 °F 93% 29.96 in 10.0 mi West 8.1 mph - 0.03 in Rain Light Rain
7:51 AM 66.9 °F - 64.9 °F 93% 29.96 in 6.0 mi West 4.6 mph - 0.01 in Rain Light Rain
8:51 AM 66.9 °F - 66.0 °F 97% 29.99 in 4.0 mi West 5.8 mph - 0.00 in   Overcast
9:51 AM 69.8 °F - 66.2 °F 88% 29.99 in 7.0 mi West 6.9 mph - N/A   Mostly Cloudy
10:14 AM 70.0 °F - 66.0 °F 87% 30.00 in 8.0 mi West 5.8 mph - N/A   Mostly Cloudy
10:51 AM 72.0 °F - 66.0 °F 81% 30.00 in 9.0 mi Variable 4.6 mph - N/A   Overcast
11:51 AM 73.9 °F - 66.0 °F 76% 30.01 in 8.0 mi NNW 8.1 mph - N/A   Overcast
12:51 PM 75.9 °F - 66.0 °F 71% 30.00 in 10.0 mi West 6.9 mph - N/A   Overcast
1:51 PM 77.0 °F - 64.9 °F 66% 29.99 in 10.0 mi NW 8.1 mph - N/A   Overcast
2:51 PM 79.0 °F - 64.9 °F 62% 29.97 in 10.0 mi NW 10.4 mph - N/A   Mostly Cloudy
3:51 PM 80.1 °F 81.9 °F 64.9 °F 60% 29.96 in 10.0 mi North 9.2 mph - N/A   Mostly Cloudy
4:51 PM 80.1 °F 81.9 °F 64.9 °F 60% 29.96 in 10.0 mi North 9.2 mph - N/A   Scattered Clouds
5:07 PM 78.1 °F - 63.0 °F 60% 29.95 in 10.0 mi NNE 11.5 mph - N/A Thunderstorm Thunderstorm
5:51 PM 75.9 °F - 62.1 °F 62% 29.98 in 10.0 mi NNW 9.2 mph - N/A Thunderstorm Thunderstorm
6:51 PM 70.0 °F - 62.1 °F 76% 30.01 in 9.0 mi WSW 5.8 mph - 0.00 in Rain , Thunderstorm Light Thunderstorms and Rain
7:05 PM 69.1 °F - 61.0 °F 75% 29.99 in 9.0 mi West 4.6 mph - 0.00 in Rain Light Rain
7:51 PM 66.0 °F - 64.0 °F 93% 30.01 in 7.0 mi SW 3.5 mph - 0.03 in Rain Light Rain
8:51 PM 66.0 °F - 64.0 °F 93% 30.02 in 9.0 mi WSW 3.5 mph - 0.03 in Rain Light Rain
9:51 PM 66.0 °F - 64.0 °F 93% 30.04 in 10.0 mi SSW 3.5 mph - 0.00 in   Overcast
10:51 PM 64.9 °F - 63.0 °F 93% 30.04 in 10.0 mi Calm Calm - N/A   Overcast
11:51 PM 64.9 °F - 63.0 °F 93% 30.04 in 9.0 mi West 3.5 mph - N/A   Overcast